User: anonymous   Login
Location: Unspecified
(0.0000°N, 0.0000°E)
Time: 03:21:44
(UTC+00:00)
Language:

ONEWEB-0426 - Orbit

View from above orbital plane
View from above orbital plane
View from above satellite
View from above satellite

Ground track
Ground track

The orbit is defined by the following mean orbital elements,

1 50498U          26145.24665639 +.00000000 +00000-0 +23740-3 0 00007
2 50498  87.9168 340.0111 0002544  89.4470 270.6953 13.18687539    07
Epoch (UTC): 25 May 2026 05:55:11
Eccentricity: 0.0002544
inclination: 87.9168°
perigee height: 1188 km
apogee height: 1192 km
right ascension of ascending node: 340.0111°
argument of perigee: 89.4470°
revolutions per day: 13.18687539
mean anomaly at epoch: 270.6953°

The dashed part of the orbit path shows where the satellite is in the earth's shadow,  

DLR